[[{"header":{"parameterUnit":"m.s-1","parameterCategory":1,"la1":30.2991,"la2":30.254,"lo1":-89.0895,"lo2":-89.0444,"dy":0.0017,"dx":0.0017,"nx":28,"ny":28,"refTime":"2025-07-13T09:00:00:Z","depth":0,"parameterNumber":2,"parameterNumberName":"U-component_of_WINDS"},"data":[0,0,0,0,0,0,0,0,0,0,0,0,0,0,0,0,0,0,0,0,0,0,0,0,0,0,0,0,0,0,0,0,0,0,0,0,0,0,0,0,0,0,0,0,0,0,0,0,0,0,0,0,0,0,0,0,0,0,0.8809,0.881,0,0.8865,0.8865,0.8866,0.8853,0.8852,0.8851,0.885,0.8906,0.8908,0.8911,0,0,0,0,0,0,0,0,0,0,0,0,0,0.869,0.8692,0.8809,0.881,0.881,0.8864,0.8865,0.8866,0.8853,0.8852,0.8851,0.8849,0.8905,0.8908,0.8911,0,0,0,0,0,0,0,0,0,0,0,0,0,0.8743,0.8693,0.8809,0.8811,0.8811,0.8864,0.8865,0.8866,0.8853,0.8852,0.885,0.8849,0.8904,0.8908,0.8911,0.8966,0,0,0.8923,0.8924,0,0,0,0,0,0,0,0,0.874,0.8747,0.881,0.881,0.8811,0.885,0.8844,0.89,0.8854,0.8837,0.885,0.8848,0.8889,0.8894,0.8907,0.8969,0.8971,0.8923,0.8925,0.8927,0.8928,0,0,0,0,0,0,0,0.8736,0.8745,0.8831,0.881,0.8812,0.8808,0.8814,0.8854,0.8871,0.8839,0.8838,0.8845,0.8889,0.8904,0.8909,0.8972,0.8923,0.8926,0.8929,0.893,0.9078,0.908,0,0,0,0,0,0,0.8732,0.8742,0.8829,0.8833,0.8771,0.8811,0.8818,0.8839,0.8871,0.8874,0.8846,0.8844,0.8898,0.8904,0.8911,0.8974,0.8927,0.893,0.8933,0.9076,0.9078,0.908,0,0,0,0,0,0,0.8729,0.874,0.8827,0.8787,0.8798,0.8815,0.8839,0.8841,0.8856,0.8876,0.8879,0.8858,0.8897,0.8905,0.8952,0.8976,0.8932,0.8936,0.9074,0.9077,0.9079,0.9104,0,0,0,0,0,0,0.8726,0.8739,0.8761,0.8788,0.88,0.8868,0.8841,0.8843,0.8863,0.8861,0.8889,0.8892,0.8897,0.8946,0.8955,0.8981,0.8938,0.9072,0.9075,0.9078,0.9101,0.9107,0.9112,0,0,0,0,0,0.8722,0.8766,0.8762,0.8772,0.8827,0.8869,0.8876,0.8881,0.8865,0.8886,0.8898,0.8891,0.8972,0.8951,0.8961,0.8988,0.9071,0.9074,0.9078,0.9099,0.9106,0.9112,0,0,0,0,0,0,0.8741,0.8769,0.8765,0.8819,0.8842,0.8867,0.8894,0.8889,0.8917,0.8914,0.8919,0.8925,0.8972,0.8985,0.8961,0.9041,0.9019,0.9025,0.9031,0.9038,0.9044,0.9039,0.8942,0,0,0,0,0,0.8752,0.8784,0.8807,0.8852,0.8864,0.8877,0.8896,0.8897,0.8921,0.8931,0.8947,0.8969,0.9,0.902,0.9049,0.9103,0.9108,0.9126,0.9132,0.9136,0.9141,0.9168,0.9176,0.9093,0.9093,0.9093,0,0,0.8774,0.8793,0.8814,0.8857,0.8875,0.8907,0.8885,0.8921,0.8944,0.8936,0.898,0.8993,0.9018,0.9068,0.9091,0.908,0.9165,0.9141,0.9145,0.9147,0.9173,0.9181,0.9188,0.9095,0.9095,0.9094,0,0,0.8831,0.8849,0.8888,0.8906,0.8933,0.8941,0.8951,0.8976,0.8984,0.9029,0.9022,0.905,0.9103,0.9121,0.9137,0.9199,0.9192,0.9208,0.9237,0.9263,0.927,0.9276,0.9295,0.9303,0.9213,0.9213,0.9213,0,0.8855,0.8904,0.8909,0.8944,0.8962,0.8956,0.8994,0.9012,0.9047,0.9059,0.9047,0.9112,0.9129,0.9182,0.9196,0.921,0.922,0.9204,0.9269,0.9274,0.928,0.9299,0.9307,0.9215,0.9215,0.9214,0.9214,0,0.893,0.8964,0.8992,0.9026,0.9048,0.9085,0.9094,0.9115,0.9115,0.9124,0.9168,0.9188,0.9221,0.9234,0.9234,0.9286,0.9278,0.9267,0.9245,0.9289,0.9307,0.9315,0.9217,0.9217,0.9216,0.9216,0,0,0.9001,0.9036,0.9046,0.906,0.9089,0.9115,0.915,0.9182,0.9199,0.9223,0.9252,0.9297,0.9286,0.9304,0.9307,0.933,0.9375,0.9316,0.9317,0.9325,0.943,0.9437,0.9446,0.9371,0.9372,0.9373,0.9428,0,0.9058,0.9122,0.9126,0.9183,0.9213,0.9207,0.9238,0.9258,0.9268,0.9294,0.9304,0.9334,0.932,0.933,0.9353,0.9364,0.9396,0.9361,0.9396,0.9398,0.9389,0.9455,0.9463,0.9513,0.9435,0.9436,0.9437,0,0.9134,0.9159,0.9219,0.9242,0.9254,0.9282,0.931,0.9336,0.9358,0.9363,0.9383,0.9382,0.9417,0.9394,0.9442,0.9418,0.9433,0.9441,0.9443,0.9445,0.9419,0.9458,0.953,0.9536,0.9448,0.9448,0.9447,0,0.9176,0.9226,0.9268,0.928,0.9308,0.9327,0.934,0.9361,0.9379,0.9403,0.9414,0.9443,0.9458,0.948,0.9486,0.9469,0.9533,0.9511,0.9537,0.9537,0.9549,0.9548,0.9623,0.9562,0.9562,0.9562,0.9562,0,0.9239,0.9275,0.9287,0.9312,0.9352,0.9357,0.9396,0.9407,0.9425,0.9452,0.9449,0.9473,0.948,0.9506,0.9511,0.9549,0.9556,0.956,0.9561,0.956,0.9559,0.9568,0.9564,0.9564,0.9563,0.9563,0.9563,0,0.9293,0.9302,0.9347,0.9369,0.9376,0.9404,0.9422,0.9446,0.9455,0.9488,0.9496,0.9509,0.9539,0.9548,0.9584,0.9587,0.9631,0.9629,0.9623,0.9623,0.9647,0.9644,0.9729,0.974,0.9673,0.9674,0.9675,0,0.9331,0.9359,0.9384,0.9401,0.9414,0.9443,0.9461,0.9466,0.9485,0.9512,0.9532,0.9561,0.9585,0.9633,0.9646,0.9673,0.9671,0.9698,0.9675,0.9672,0.9669,0.9666,0.9668,0.9703,0.9703,0.9704,0.9704,0,0.9398,0.9401,0.9427,0.9454,0.9476,0.9498,0.9519,0.9533,0.9541,0.9562,0.9593,0.9611,0.9647,0.9676,0.9703,0.9715,0.9711,0.9712,0.9719,0.9717,0.9712,0.9713,0.9634,0.971,0.9709,0.9709,0.9708,0.9708,0.9444,0.9467,0.9488,0.9516,0.9533,0.9552,0.9574,0.9585,0.9611,0.9641,0.9643,0.9675,0.9695,0.9731,0.9745,0.977,0.9761,0.9772,0.9774,0.9776,0.9777,0.9709,0.9775,0.9775,0.9775,0.9775,0.9774,0,0.9508,0.9521,0.9547,0.9576,0.9598,0.9592,0.9615,0.9633,0.9662,0.9681,0.9705,0.9739,0.9766,0.978,0.9808,0.9825,0.9823,0.9831,0.9829,0.9832,0.9785,0.9775,0.9832,0.9832,0.9832,0.9832,0.9832,0.9832,0.9544,0.9582,0.9588,0.9633,0.9646,0.9678,0.9691,0.9708,0.9723,0.9761,0.9784,0.9793,0.981,0.9838,0.9862,0.9866,0.9875,0.9884,0.9886,0.9841,0.9835,0.983,0.982,0.9886,0.9887,0.9931,0.9931,0.9932]},{"header":{"parameterUnit":"m.s-1","parameterCategory":1,"la1":30.2991,"la2":30.254,"lo1":-89.0895,"lo2":-89.0444,"dy":0.0017,"dx":0.0017,"nx":28,"ny":28,"refTime":"2025-07-13T09:00:00:Z","depth":0,"parameterNumber":3,"parameterNumberName":"V-component_of_WINDS"},"data":[0,0,0,0,0,0,0,0,0,0,0,0,0,0,0,0,0,0,0,0,0,0,0,0,0,0,0,0,0,0,0,0,0,0,0,0,0,0,0,0,0,0,0,0,0,0,0,0,0,0,0,0,0,0,0,0,0,0,2.2922,2.2922,0,2.2922,2.2922,2.2922,2.2833,2.2831,2.2828,2.2826,2.2827,2.2829,2.2831,0,0,0,0,0,0,0,0,0,0,0,0,0,2.2845,2.2847,2.2922,2.2922,2.2922,2.2922,2.2922,2.2922,2.2834,2.2831,2.2828,2.2825,2.2826,2.2829,2.2831,0,0,0,0,0,0,0,0,0,0,0,0,0,2.2865,2.2847,2.2922,2.2878,2.2874,2.2922,2.2922,2.2922,2.2834,2.2831,2.2827,2.2824,2.2825,2.2828,2.2832,2.2922,0,0,2.2842,2.2843,0,0,0,0,0,0,0,0,2.2864,2.2868,2.2884,2.2881,2.2877,2.2874,2.2895,2.2922,2.2835,2.2849,2.2826,2.2822,2.2845,2.2847,2.2854,2.2922,2.2922,2.2842,2.2844,2.2845,2.2846,0,0,0,0,0,0,0,2.2863,2.2867,2.2922,2.2885,2.288,2.2858,2.2857,2.2899,2.2867,2.2848,2.2841,2.2842,2.2843,2.2851,2.2854,2.2922,2.2842,2.2845,2.2847,2.2848,2.3061,2.3064,0,0,0,0,0,0,2.2867,2.2867,2.2922,2.2922,2.2861,2.2862,2.2861,2.2878,2.2866,2.2861,2.2845,2.2838,2.2848,2.285,2.2853,2.2956,2.2845,2.2848,2.285,2.3057,2.3062,2.3066,0,0,0,0,0,0,2.2866,2.2873,2.2922,2.2893,2.2897,2.2867,2.2887,2.288,2.2889,2.2864,2.2858,2.2861,2.2845,2.2849,2.2905,2.2955,2.285,2.2853,2.3053,2.3059,2.3064,2.3164,0,0,0,0,0,0,2.2864,2.2873,2.2907,2.2894,2.2899,2.2974,2.2891,2.2883,2.2895,2.2885,2.2877,2.2872,2.2842,2.29,2.2908,2.2958,2.2855,2.3048,2.3055,2.3062,2.3156,2.3172,2.3186,0,0,0,0,0,2.2862,2.2937,2.291,2.2917,2.2941,2.2977,2.298,2.2944,2.2899,2.2933,2.2917,2.2873,2.2949,2.2907,2.2915,2.2966,2.3045,2.3053,2.3061,2.3149,2.3169,2.3186,0,0,0,0,0,0,2.2958,2.2934,2.2904,2.2977,2.2979,2.2962,2.3004,2.2966,2.2982,2.2973,2.2928,2.2926,2.2989,2.2983,2.2937,2.3052,2.2989,2.2999,2.3053,2.3072,2.3086,2.3086,2.2858,0,0,0,0,0,2.2987,2.3018,2.2996,2.3062,2.3065,2.3034,2.3049,2.302,2.3022,2.3022,2.301,2.3013,2.3037,2.3054,2.3076,2.3155,2.3151,2.3194,2.3209,2.3222,2.3231,2.327,2.3289,2.3093,2.3093,2.3093,0,0,2.3049,2.304,2.3062,2.3081,2.308,2.3112,2.3036,2.3074,2.3097,2.3028,2.308,2.3071,2.3071,2.3139,2.3168,2.3136,2.3284,2.3232,2.3243,2.3245,2.3281,2.3299,2.3316,2.3098,2.3097,2.3097,0,0,2.3177,2.3174,2.3227,2.3227,2.3226,2.3205,2.3218,2.3206,2.3197,2.3248,2.3196,2.3223,2.3267,2.3268,2.3274,2.3401,2.336,2.3409,2.3488,2.3527,2.3542,2.3556,2.3599,2.3615,2.3419,2.3419,2.3419,0,2.3253,2.33,2.326,2.3301,2.331,2.3248,2.3301,2.3303,2.3309,2.3317,2.3281,2.3332,2.3328,2.3394,2.3425,2.3433,2.3445,2.341,2.3543,2.3556,2.3568,2.3609,2.3626,2.3425,2.3424,2.3424,2.3423,0,2.3393,2.3426,2.347,2.3476,2.349,2.3537,2.3503,2.3523,2.3493,2.3476,2.3527,2.352,2.3537,2.3551,2.3524,2.3613,2.3593,2.3551,2.3487,2.3593,2.3631,2.3646,2.3433,2.3431,2.3429,2.3428,0,0,2.3582,2.3564,2.358,2.3581,2.3574,2.3599,2.3643,2.3659,2.3676,2.3682,2.3716,2.3754,2.3714,2.3721,2.3693,2.3728,2.3826,2.3681,2.368,2.3707,2.3922,2.3953,2.3972,2.3799,2.3802,2.3805,2.3922,0,2.3704,2.3777,2.3741,2.3819,2.3847,2.3788,2.3826,2.3826,2.3811,2.3833,2.3816,2.3842,2.3789,2.3792,2.3824,2.3808,2.3869,2.3799,2.383,2.3832,2.383,2.3992,2.4024,2.4135,2.3936,2.3939,2.3941,0,2.3857,2.3868,2.3948,2.3933,2.3944,2.3979,2.3989,2.4012,2.401,2.3996,2.4004,2.3967,2.4008,2.3945,2.4,2.3953,2.3964,2.3958,2.3961,2.3962,2.3892,2.3995,2.417,2.4186,2.3964,2.3962,2.396,0,2.3984,2.4019,2.407,2.4073,2.4058,2.4084,2.4079,2.4073,2.4085,2.4095,2.4101,2.4117,2.4125,2.4137,2.4105,2.4062,2.4164,2.4099,2.4153,2.4154,2.4176,2.4175,2.4354,2.4186,2.4186,2.4185,2.4185,0,2.4124,2.4174,2.4127,2.4158,2.4213,2.4171,2.4226,2.4215,2.421,2.4238,2.4189,2.4216,2.4172,2.4195,2.4171,2.4219,2.4224,2.4213,2.4206,2.4217,2.4218,2.4222,2.4213,2.419,2.4189,2.4188,2.4187,0,2.4275,2.4245,2.4297,2.4278,2.4274,2.4315,2.4299,2.4327,2.4307,2.4343,2.4349,2.4319,2.4343,2.4313,2.4335,2.4318,2.4383,2.4365,2.4384,2.4378,2.4433,2.4428,2.462,2.4642,2.4462,2.4464,2.4465,0,2.4365,2.4402,2.4386,2.4401,2.4398,2.4423,2.4434,2.4394,2.4408,2.4407,2.4435,2.4455,2.4468,2.451,2.449,2.4506,2.4487,2.4553,2.4489,2.4498,2.4486,2.4483,2.4486,2.4566,2.4568,2.457,2.4571,0,2.4527,2.451,2.4527,2.4539,2.4553,2.4561,2.4565,2.458,2.4538,2.4556,2.4579,2.459,2.4611,2.4631,2.4641,2.4636,2.4597,2.4592,2.4604,2.4615,2.4624,2.4618,2.4418,2.4587,2.4585,2.4584,2.4583,2.4583,2.4649,2.4678,2.4671,2.4692,2.469,2.4695,2.4719,2.4702,2.4721,2.4734,2.471,2.4739,2.4735,2.4745,2.4744,2.4766,2.4737,2.4757,2.4761,2.4766,2.4774,2.4622,2.4768,2.4768,2.4767,2.4767,2.4766,0,2.4807,2.4799,2.4818,2.4825,2.484,2.4801,2.4803,2.4819,2.4845,2.4844,2.4858,2.4884,2.4903,2.4884,2.4899,2.492,2.4903,2.4926,2.4923,2.4922,2.48,2.4786,2.494,2.494,2.4939,2.4939,2.4939,2.4939,2.4891,2.4938,2.492,2.4965,2.4957,2.4984,2.4988,2.4992,2.499,2.5022,2.5036,2.5024,2.5015,2.5029,2.5044,2.5038,2.5045,2.5074,2.5062,2.4948,2.4931,2.4915,2.4901,2.5077,2.5077,2.5182,2.5183,2.5184]}]]